Check out our new BloomSky Weather System.

Active alerts


No alerts


Thunder radar  blitzortung!


Rain radar more information rain snow radar


Visit our other weather sites:

Template documentation
and downloads

And another site



Weather Underground History page Text

Daily Summary for May 25, 2017 Units:  English    Metric   Both
« Previous Day
Next Day »
Daily Weekly Monthly Yearly Custom
  High: Low: Average:
Temperature: 91.0 °F 59.9 °F 76.6 °F
Dew Point: 69.1 °F 54.5 °F 61.6 °F
Humidity: 92 % 34 % 63 %
Wind Speed: 15.0 mph 0.0 mph 4.6 mph
Wind Gust: 20.0 mph - -
Wind:- - South
Pressure: 29.81 in 29.73 in -
Precipitation: 0.00 in    
Historical Graphs
 
 
Tabular Data for May 25, 2017
Time Temperature Dew Point Pressure Wind Wind Speed Wind Gust Humidity Rainfall Rate (Hourly)
00:02 63.7 °F 55.2 °F 29.75 in Calm     74 % 0.00 in
00:07 63.7 °F 55.6 °F 29.75 in Calm     75 % 0.00 in
00:12 63.5 °F 55.4 °F 29.75 in Calm     75 % 0.00 in
00:17 63.5 °F 55.8 °F 29.75 in Calm     76 % 0.00 in
00:22 63.5 °F 55.8 °F 29.75 in Calm     76 % 0.00 in
00:27 63.1 °F 55.8 °F 29.75 in Calm     77 % 0.00 in
00:32 63.3 °F 56.3 °F 29.75 in Calm     78 % 0.00 in
00:37 63.1 °F 55.8 °F 29.75 in Calm     77 % 0.00 in
00:42 62.8 °F 55.4 °F 29.75 in Calm     77 % 0.00 in
00:47 62.6 °F 55.6 °F 29.75 in Calm     78 % 0.00 in
00:52 62.4 °F 55.4 °F 29.75 in Calm     78 % 0.00 in
00:57 62.4 °F 55.8 °F 29.75 in Calm     79 % 0.00 in
01:02 62.2 °F 55.6 °F 29.75 in Calm     79 % 0.00 in
01:03 62.1 °F 55.4 °F 29.75 in Calm     79 % 0.00 in
01:09 61.9 °F 55.6 °F 29.75 in Calm     80 % 0.00 in
01:14 61.7 °F 55.4 °F 29.75 in Calm     80 % 0.00 in
01:19 61.7 °F 55.8 °F 29.75 in Calm     81 % 0.00 in
01:24 61.9 °F 55.9 °F 29.75 in Calm     81 % 0.00 in
01:29 61.7 °F 55.4 °F 29.75 in Calm     80 % 0.00 in
01:34 61.5 °F 55.2 °F 29.75 in Calm     80 % 0.00 in
01:39 61.7 °F 55.4 °F 29.75 in Calm     80 % 0.00 in
01:44 61.5 °F 55.2 °F 29.75 in Calm     80 % 0.00 in
01:49 62.1 °F 55.8 °F 29.74 in Calm     80 % 0.00 in
01:54 62.6 °F 55.9 °F 29.74 in Calm   1.0 mph 79 % 0.00 in
02:00 63.3 °F 55.9 °F 29.74 in Calm   1.0 mph 77 % 0.00 in
02:05 63.7 °F 55.6 °F 29.74 in SSW 3.0 mph 3.0 mph 75 % 0.00 in
02:06 63.7 °F 55.2 °F 29.74 in South 1.0 mph 4.0 mph 74 % 0.00 in
02:11 64.2 °F 55.0 °F 29.74 in ESE 1.0 mph 4.0 mph 72 % 0.00 in
02:16 64.6 °F 55.4 °F 29.74 in Calm   4.0 mph 72 % 0.00 in
02:21 64.8 °F 55.6 °F 29.73 in Calm   4.0 mph 72 % 0.00 in
02:26 64.8 °F 55.2 °F 29.73 in Calm   2.0 mph 71 % 0.00 in
02:31 64.6 °F 55.0 °F 29.73 in Calm   2.0 mph 71 % 0.00 in
02:36 64.2 °F 55.0 °F 29.73 in Calm   1.0 mph 72 % 0.00 in
02:41 64.2 °F 55.0 °F 29.73 in SSE 1.0 mph 1.0 mph 72 % 0.00 in
02:46 64.4 °F 54.9 °F 29.73 in Calm   3.0 mph 71 % 0.00 in
02:51 64.6 °F 54.5 °F 29.73 in SSE 1.0 mph 3.0 mph 70 % 0.00 in
02:56 64.9 °F 54.5 °F 29.74 in Calm   3.0 mph 69 % 0.00 in
03:01 65.3 °F 54.5 °F 29.74 in Calm   3.0 mph 68 % 0.00 in
03:06 65.5 °F 54.7 °F 29.74 in SE 1.0 mph 3.0 mph 68 % 0.00 in
03:11 65.5 °F 54.7 °F 29.74 in Calm   2.0 mph 68 % 0.00 in
03:16 65.3 °F 54.9 °F 29.74 in Calm   2.0 mph 69 % 0.00 in
03:21 65.1 °F 54.7 °F 29.74 in Calm   2.0 mph 69 % 0.00 in
03:26 65.1 °F 54.7 °F 29.74 in SE 2.0 mph 2.0 mph 69 % 0.00 in
03:31 65.1 °F 55.0 °F 29.74 in Calm   3.0 mph 70 % 0.00 in
03:36 65.3 °F 55.2 °F 29.74 in Calm   3.0 mph 70 % 0.00 in
03:41 65.1 °F 55.4 °F 29.73 in Calm   3.0 mph 71 % 0.00 in
03:46 65.1 °F 55.4 °F 29.74 in Calm   2.0 mph 71 % 0.00 in
03:51 64.8 °F 55.6 °F 29.73 in Calm   1.0 mph 72 % 0.00 in
03:56 64.6 °F 55.4 °F 29.74 in Calm   1.0 mph 72 % 0.00 in
04:02 64.2 °F 55.4 °F 29.73 in Calm   1.0 mph 73 % 0.00 in
04:07 63.9 °F 55.4 °F 29.73 in Calm   1.0 mph 74 % 0.00 in
04:12 63.7 °F 55.6 °F 29.73 in Calm     75 % 0.00 in
04:17 63.7 °F 55.9 °F 29.73 in Calm     76 % 0.00 in
04:22 63.3 °F 55.6 °F 29.73 in Calm     76 % 0.00 in
04:27 63.1 °F 55.8 °F 29.73 in Calm     77 % 0.00 in
04:32 63.1 °F 56.1 °F 29.73 in Calm     78 % 0.00 in
04:37 63.0 °F 55.9 °F 29.73 in Calm     78 % 0.00 in
04:42 62.6 °F 55.9 °F 29.74 in Calm     79 % 0.00 in
04:47 62.2 °F 55.9 °F 29.74 in Calm     80 % 0.00 in
04:52 62.1 °F 56.1 °F 29.74 in Calm     81 % 0.00 in
04:58 61.9 °F 56.3 °F 29.74 in Calm     82 % 0.00 in
05:03 61.7 °F 56.5 °F 29.75 in Calm     83 % 0.00 in
05:08 61.5 °F 56.7 °F 29.75 in Calm     84 % 0.00 in
05:13 61.7 °F 56.8 °F 29.75 in Calm     84 % 0.00 in
05:18 61.5 °F 56.7 °F 29.75 in Calm     84 % 0.00 in
05:23 61.3 °F 56.5 °F 29.75 in Calm     84 % 0.00 in
05:28 61.2 °F 56.7 °F 29.75 in Calm     85 % 0.00 in
05:33 61.0 °F 56.8 °F 29.75 in Calm     86 % 0.00 in
05:38 61.0 °F 56.8 °F 29.75 in Calm     86 % 0.00 in
05:43 60.8 °F 56.7 °F 29.75 in Calm     86 % 0.00 in
05:48 60.6 °F 56.7 °F 29.75 in Calm     87 % 0.00 in
05:53 60.6 °F 56.7 °F 29.75 in Calm     87 % 0.00 in
05:58 60.4 °F 56.8 °F 29.75 in Calm     88 % 0.00 in
06:03 60.3 °F 56.7 °F 29.75 in Calm     88 % 0.00 in
06:08 60.3 °F 56.7 °F 29.76 in Calm     88 % 0.00 in
06:13 60.1 °F 56.5 °F 29.76 in Calm     88 % 0.00 in
06:18 60.1 °F 56.8 °F 29.76 in Calm     89 % 0.00 in
06:23 60.1 °F 56.8 °F 29.76 in Calm     89 % 0.00 in
06:28 59.9 °F 57.0 °F 29.76 in Calm     90 % 0.00 in
06:33 59.9 °F 57.0 °F 29.77 in Calm     90 % 0.00 in
06:38 59.9 °F 57.0 °F 29.77 in Calm     90 % 0.00 in
06:43 60.1 °F 57.4 °F 29.77 in Calm     91 % 0.00 in
06:48 60.3 °F 57.6 °F 29.78 in Calm     91 % 0.00 in
06:53 60.4 °F 57.7 °F 29.78 in Calm     91 % 0.00 in
06:58 60.6 °F 57.9 °F 29.78 in Calm     91 % 0.00 in
07:03 61.0 °F 58.3 °F 29.78 in Calm     91 % 0.00 in
07:08 61.3 °F 59.0 °F 29.79 in Calm     92 % 0.00 in
07:13 62.4 °F 60.1 °F 29.78 in Calm     92 % 0.00 in
07:18 63.3 °F 60.6 °F 29.79 in Calm     91 % 0.00 in
07:23 64.6 °F 61.9 °F 29.79 in Calm     91 % 0.00 in
07:28 66.0 °F 63.3 °F 29.79 in Calm     91 % 0.00 in
07:33 67.5 °F 64.0 °F 29.79 in Calm     89 % 0.00 in
07:38 68.5 °F 64.6 °F 29.79 in Calm     87 % 0.00 in
07:43 69.4 °F 64.8 °F 29.79 in Calm     85 % 0.00 in
07:48 70.2 °F 64.4 °F 29.79 in Calm   1.0 mph 82 % 0.00 in
07:53 70.5 °F 64.4 °F 29.79 in Calm   1.0 mph 81 % 0.00 in
07:58 71.4 °F 64.9 °F 29.79 in Calm   1.0 mph 80 % 0.00 in
08:03 72.0 °F 65.1 °F 29.79 in Calm   1.0 mph 79 % 0.00 in
08:08 72.5 °F 65.7 °F 29.79 in SSW 1.0 mph 2.0 mph 79 % 0.00 in
08:10 72.7 °F 65.8 °F 29.79 in Calm   2.0 mph 79 % 0.00 in
08:15 73.2 °F 66.0 °F 29.79 in SW 1.0 mph 2.0 mph 78 % 0.00 in
08:20 73.4 °F 65.7 °F 29.79 in South 3.0 mph 4.0 mph 77 % 0.00 in
08:25 73.8 °F 66.4 °F 29.80 in SSE 2.0 mph 6.0 mph 78 % 0.00 in
08:30 74.1 °F 66.4 °F 29.80 in SSE 4.0 mph 7.0 mph 77 % 0.00 in
08:35 74.5 °F 66.7 °F 29.80 in South 2.0 mph 7.0 mph 77 % 0.00 in
08:40 75.0 °F 66.9 °F 29.80 in SSW 5.0 mph 7.0 mph 76 % 0.00 in
08:45 75.9 °F 67.1 °F 29.80 in SE 3.0 mph 7.0 mph 74 % 0.00 in
08:50 76.5 °F 66.7 °F 29.80 in SSW 7.0 mph 7.0 mph 72 % 0.00 in
08:55 76.6 °F 66.9 °F 29.80 in SSW 3.0 mph 10.0 mph 72 % 0.00 in
09:00 77.4 °F 66.7 °F 29.80 in SSW 4.0 mph 12.0 mph 70 % 0.00 in
09:05 77.7 °F 66.7 °F 29.80 in SW 4.0 mph 12.0 mph 69 % 0.00 in
09:10 78.1 °F 66.2 °F 29.81 in SE 11.0 mph 12.0 mph 67 % 0.00 in
09:15 78.1 °F 65.8 °F 29.81 in SSE 5.0 mph 15.0 mph 66 % 0.00 in
09:20 78.1 °F 65.8 °F 29.81 in SSW 10.0 mph 15.0 mph 66 % 0.00 in
09:25 78.4 °F 66.2 °F 29.81 in South 4.0 mph 15.0 mph 66 % 0.00 in
09:30 78.8 °F 66.0 °F 29.81 in SW 8.0 mph 14.0 mph 65 % 0.00 in
09:35 79.2 °F 65.5 °F 29.81 in SSW 3.0 mph 14.0 mph 63 % 0.00 in
09:40 79.3 °F 65.1 °F 29.81 in SSW 5.0 mph 14.0 mph 62 % 0.00 in
09:45 80.1 °F 65.5 °F 29.81 in SW 9.0 mph 17.0 mph 61 % 0.00 in
09:50 80.2 °F 65.1 °F 29.81 in SW 1.0 mph 17.0 mph 60 % 0.00 in
09:55 81.0 °F 64.8 °F 29.81 in SSE 8.0 mph 15.0 mph 58 % 0.00 in
10:00 81.1 °F 64.4 °F 29.81 in SW 5.0 mph 14.0 mph 57 % 0.00 in
10:05 81.1 °F 64.0 °F 29.81 in SSW 5.0 mph 13.0 mph 56 % 0.00 in
10:10 81.3 °F 64.0 °F 29.81 in SE 9.0 mph 13.0 mph 56 % 0.00 in
10:15 81.1 °F 64.0 °F 29.81 in SE 9.0 mph 17.0 mph 56 % 0.00 in
10:20 81.7 °F 64.4 °F 29.81 in SE 8.0 mph 17.0 mph 56 % 0.00 in
10:25 82.0 °F 64.2 °F 29.81 in SW 8.0 mph 17.0 mph 55 % 0.00 in
10:30 82.0 °F 65.3 °F 29.81 in SSW 1.0 mph 16.0 mph 57 % 0.00 in
10:35 82.2 °F 64.9 °F 29.81 in SSE 11.0 mph 19.0 mph 56 % 0.00 in
10:40 82.0 °F 65.3 °F 29.81 in WSW 3.0 mph 19.0 mph 57 % 0.00 in
10:45 82.4 °F 65.1 °F 29.81 in SSW 8.0 mph 19.0 mph 56 % 0.00 in
10:50 82.6 °F 63.1 °F 29.81 in SSE 15.0 mph 20.0 mph 52 % 0.00 in
10:55 82.8 °F 63.9 °F 29.80 in ESE 12.0 mph 20.0 mph 53 % 0.00 in
11:00 83.1 °F 64.8 °F 29.81 in SE 7.0 mph 20.0 mph 54 % 0.00 in
11:05 83.1 °F 63.1 °F 29.81 in SSE 6.0 mph 18.0 mph 51 % 0.00 in
11:10 83.7 °F 64.8 °F 29.80 in SSE 8.0 mph 18.0 mph 53 % 0.00 in
11:15 83.7 °F 64.2 °F 29.80 in SSW 9.0 mph 17.0 mph 52 % 0.00 in
11:20 83.8 °F 64.4 °F 29.81 in SSE 8.0 mph 19.0 mph 52 % 0.00 in
11:25 84.2 °F 65.3 °F 29.81 in SSW 7.0 mph 19.0 mph 53 % 0.00 in
11:30 84.4 °F 65.3 °F 29.81 in WSW 5.0 mph 19.0 mph 53 % 0.00 in
11:35 84.7 °F 65.1 °F 29.80 in South 8.0 mph 15.0 mph 52 % 0.00 in
11:40 84.9 °F 65.3 °F 29.81 in SSW 9.0 mph 15.0 mph 52 % 0.00 in
11:45 85.1 °F 64.9 °F 29.80 in SSE 8.0 mph 15.0 mph 51 % 0.00 in
11:55 84.9 °F 64.2 °F 29.80 in South 7.0 mph 17.0 mph 50 % 0.00 in
12:00 85.1 °F 64.4 °F 29.80 in ESE 8.0 mph 18.0 mph 50 % 0.00 in
12:05 85.5 °F 65.8 °F 29.80 in SSE 5.0 mph 18.0 mph 52 % 0.00 in
12:10 85.8 °F 66.2 °F 29.80 in SSW 14.0 mph 18.0 mph 52 % 0.00 in
12:15 85.8 °F 64.9 °F 29.80 in West 1.0 mph 19.0 mph 50 % 0.00 in
12:20 86.4 °F 64.9 °F 29.79 in SSW 9.0 mph 19.0 mph 49 % 0.00 in
12:25 86.7 °F 64.8 °F 29.79 in SSE 9.0 mph 19.0 mph 48 % 0.00 in
12:30 86.7 °F 64.8 °F 29.79 in SE 8.0 mph 19.0 mph 48 % 0.00 in
12:35 87.1 °F 66.2 °F 29.78 in SE 8.0 mph 16.0 mph 50 % 0.00 in
12:40 87.3 °F 64.6 °F 29.79 in SW 7.0 mph 16.0 mph 47 % 0.00 in
12:45 87.1 °F 64.9 °F 29.79 in SSW 8.0 mph 16.0 mph 48 % 0.00 in
12:50 87.1 °F 64.4 °F 29.78 in South 7.0 mph 16.0 mph 47 % 0.00 in
12:55 87.1 °F 63.9 °F 29.79 in South 6.0 mph 18.0 mph 46 % 0.00 in
13:00 87.4 °F 65.3 °F 29.78 in SSE 6.0 mph 18.0 mph 48 % 0.00 in
13:05 87.8 °F 64.4 °F 29.78 in ESE 9.0 mph 19.0 mph 46 % 0.00 in
13:11 87.6 °F 64.2 °F 29.78 in SSE 10.0 mph 19.0 mph 46 % 0.00 in
13:16 87.6 °F 64.2 °F 29.78 in ESE 7.0 mph 19.0 mph 46 % 0.00 in
13:21 88.0 °F 65.3 °F 29.78 in SSW 6.0 mph 20.0 mph 47 % 0.00 in
13:26 88.7 °F 64.0 °F 29.78 in SSE 7.0 mph 20.0 mph 44 % 0.00 in
13:31 88.5 °F 65.1 °F 29.78 in SSW 10.0 mph 20.0 mph 46 % 0.00 in
13:36 88.5 °F 64.4 °F 29.78 in SSW 7.0 mph 16.0 mph 45 % 0.00 in
13:41 88.9 °F 64.8 °F 29.78 in SE 8.0 mph 16.0 mph 45 % 0.00 in
13:46 89.1 °F 64.9 °F 29.78 in SW 6.0 mph 15.0 mph 45 % 0.00 in
13:51 89.2 °F 65.1 °F 29.77 in South 9.0 mph 15.0 mph 45 % 0.00 in
13:56 89.2 °F 65.1 °F 29.78 in SSW 8.0 mph 17.0 mph 45 % 0.00 in
14:01 89.1 °F 64.9 °F 29.77 in SE 10.0 mph 17.0 mph 45 % 0.00 in
14:06 89.1 °F 65.7 °F 29.78 in SE 6.0 mph 17.0 mph 46 % 0.00 in
14:11 89.1 °F 64.9 °F 29.77 in SSW 10.0 mph 17.0 mph 45 % 0.00 in
14:16 89.1 °F 64.2 °F 29.77 in SSE 6.0 mph 18.0 mph 44 % 0.00 in
14:21 89.2 °F 63.9 °F 29.77 in SSW 5.0 mph 18.0 mph 43 % 0.00 in
14:26 89.4 °F 63.3 °F 29.76 in South 7.0 mph 18.0 mph 42 % 0.00 in
14:36 89.4 °F 62.6 °F 29.76 in WNW 6.0 mph 18.0 mph 41 % 0.00 in
14:41 89.8 °F 60.8 °F 29.76 in SSW 9.0 mph 18.0 mph 38 % 0.00 in
14:46 89.8 °F 63.0 °F 29.76 in SW 7.0 mph 17.0 mph 41 % 0.00 in
14:51 90.1 °F 61.9 °F 29.75 in SSW 6.0 mph 17.0 mph 39 % 0.00 in
14:56 90.3 °F 61.3 °F 29.75 in SSW 10.0 mph 19.0 mph 38 % 0.00 in
15:01 90.1 °F 63.3 °F 29.75 in WSW 5.0 mph 19.0 mph 41 % 0.00 in
15:06 90.7 °F 64.4 °F 29.75 in South 6.0 mph 19.0 mph 42 % 0.00 in
15:16 90.3 °F 62.1 °F 29.75 in South 6.0 mph 16.0 mph 39 % 0.00 in
15:21 90.7 °F 61.5 °F 29.75 in ESE 10.0 mph 16.0 mph 38 % 0.00 in
15:26 90.3 °F 61.3 °F 29.75 in SE 13.0 mph 18.0 mph 38 % 0.00 in
15:31 90.5 °F 62.2 °F 29.75 in SSW 8.0 mph 18.0 mph 39 % 0.00 in
15:36 90.7 °F 61.5 °F 29.75 in South 8.0 mph 18.0 mph 38 % 0.00 in
15:41 91.0 °F 64.8 °F 29.75 in South 10.0 mph 14.0 mph 42 % 0.00 in
15:46 90.9 °F 63.9 °F 29.75 in SE 6.0 mph 18.0 mph 41 % 0.00 in
15:51 90.9 °F 63.1 °F 29.74 in SSW 9.0 mph 18.0 mph 40 % 0.00 in
15:56 90.7 °F 64.4 °F 29.75 in SW 8.0 mph 19.0 mph 42 % 0.00 in
16:01 90.9 °F 65.3 °F 29.75 in South 5.0 mph 19.0 mph 43 % 0.00 in
16:06 90.7 °F 64.4 °F 29.74 in SE 6.0 mph 19.0 mph 42 % 0.00 in
16:09 90.7 °F 64.4 °F 29.74 in SSW 5.0 mph 19.0 mph 42 % 0.00 in
16:14 90.7 °F 64.4 °F 29.75 in SW 8.0 mph 14.0 mph 42 % 0.00 in
16:19 90.3 °F 64.0 °F 29.75 in SE 5.0 mph 16.0 mph 42 % 0.00 in
16:25 90.1 °F 63.9 °F 29.75 in South 5.0 mph 16.0 mph 42 % 0.00 in
16:30 90.1 °F 64.6 °F 29.75 in SE 8.0 mph 16.0 mph 43 % 0.00 in
16:35 90.0 °F 63.9 °F 29.75 in SSW 6.0 mph 16.0 mph 42 % 0.00 in
16:40 89.8 °F 63.7 °F 29.75 in SSW 5.0 mph 16.0 mph 42 % 0.00 in
16:45 89.8 °F 63.7 °F 29.75 in South 10.0 mph 16.0 mph 42 % 0.00 in
16:50 89.4 °F 62.6 °F 29.75 in South 7.0 mph 18.0 mph 41 % 0.00 in
16:55 89.2 °F 62.4 °F 29.75 in SSW 4.0 mph 18.0 mph 41 % 0.00 in
17:00 89.4 °F 62.6 °F 29.74 in SSW 9.0 mph 18.0 mph 41 % 0.00 in
17:05 89.4 °F 61.9 °F 29.74 in South 11.0 mph 16.0 mph 40 % 0.00 in
17:10 89.4 °F 61.9 °F 29.74 in SE 8.0 mph 18.0 mph 40 % 0.00 in
17:15 89.2 °F 61.7 °F 29.74 in Calm   18.0 mph 40 % 0.00 in
17:20 89.2 °F 61.7 °F 29.74 in South 9.0 mph 18.0 mph 40 % 0.00 in
17:25 89.2 °F 61.7 °F 29.74 in South 13.0 mph 17.0 mph 40 % 0.00 in
17:30 89.1 °F 61.5 °F 29.74 in SE 8.0 mph 17.0 mph 40 % 0.00 in
17:35 89.1 °F 62.2 °F 29.74 in SW 7.0 mph 14.0 mph 41 % 0.00 in
17:40 88.9 °F 62.8 °F 29.74 in SSW 9.0 mph 16.0 mph 42 % 0.00 in
17:45 88.7 °F 61.3 °F 29.74 in South 10.0 mph 16.0 mph 40 % 0.00 in
17:50 88.3 °F 61.7 °F 29.74 in SE 4.0 mph 16.0 mph 41 % 0.00 in
17:55 88.5 °F 61.2 °F 29.74 in SE 8.0 mph 16.0 mph 40 % 0.00 in
18:00 88.2 °F 60.1 °F 29.74 in SE 6.0 mph 14.0 mph 39 % 0.00 in
18:05 88.0 °F 59.9 °F 29.74 in South 6.0 mph 13.0 mph 39 % 0.00 in
18:10 88.0 °F 60.6 °F 29.74 in SSE 9.0 mph 14.0 mph 40 % 0.00 in
18:15 88.0 °F 60.6 °F 29.74 in WSW 4.0 mph 14.0 mph 40 % 0.00 in
18:20 88.0 °F 57.7 °F 29.74 in SSE 12.0 mph 15.0 mph 36 % 0.00 in
18:25 87.4 °F 56.5 °F 29.74 in SSW 5.0 mph 19.0 mph 35 % 0.00 in
18:30 87.4 °F 56.5 °F 29.74 in South 6.0 mph 19.0 mph 35 % 0.00 in
18:35 87.4 °F 55.6 °F 29.74 in SW 12.0 mph 19.0 mph 34 % 0.00 in
18:40 87.3 °F 56.3 °F 29.73 in South 8.0 mph 15.0 mph 35 % 0.00 in
18:45 87.1 °F 55.2 °F 29.73 in SE 6.0 mph 17.0 mph 34 % 0.00 in
18:50 86.9 °F 55.9 °F 29.73 in SSE 8.0 mph 17.0 mph 35 % 0.00 in
18:55 86.7 °F 56.7 °F 29.73 in SSW 9.0 mph 17.0 mph 36 % 0.00 in
19:00 86.5 °F 57.2 °F 29.73 in SE 5.0 mph 16.0 mph 37 % 0.00 in
19:05 86.4 °F 57.7 °F 29.73 in SSE 11.0 mph 16.0 mph 38 % 0.00 in
19:10 86.2 °F 56.8 °F 29.73 in East 11.0 mph 16.0 mph 37 % 0.00 in
19:15 85.8 °F 56.5 °F 29.73 in SE 8.0 mph 17.0 mph 37 % 0.00 in
19:20 85.3 °F 56.8 °F 29.74 in South 11.0 mph 17.0 mph 38 % 0.00 in
19:25 84.9 °F 57.2 °F 29.74 in SE 7.0 mph 17.0 mph 39 % 0.00 in
19:30 84.7 °F 59.2 °F 29.73 in East 8.0 mph 15.0 mph 42 % 0.00 in
19:35 84.6 °F 59.0 °F 29.73 in South 5.0 mph 14.0 mph 42 % 0.00 in
19:40 84.4 °F 59.4 °F 29.73 in SSE 4.0 mph 14.0 mph 43 % 0.00 in
19:45 83.8 °F 60.3 °F 29.73 in South 11.0 mph 14.0 mph 45 % 0.00 in
19:47 83.8 °F 60.3 °F 29.73 in South 8.0 mph 14.0 mph 45 % 0.00 in
19:52 83.5 °F 60.4 °F 29.73 in ESE 8.0 mph 14.0 mph 46 % 0.00 in
19:57 83.1 °F 60.8 °F 29.73 in South 7.0 mph 14.0 mph 47 % 0.00 in
20:02 82.9 °F 61.2 °F 29.73 in SE 11.0 mph 13.0 mph 48 % 0.00 in
20:07 82.6 °F 62.1 °F 29.74 in SSE 6.0 mph 14.0 mph 50 % 0.00 in
20:12 82.4 °F 63.0 °F 29.74 in SSE 4.0 mph 14.0 mph 52 % 0.00 in
20:17 81.9 °F 63.5 °F 29.74 in South 9.0 mph 14.0 mph 54 % 0.00 in
20:22 81.7 °F 63.9 °F 29.74 in ESE 7.0 mph 12.0 mph 55 % 0.00 in
20:27 81.3 °F 64.6 °F 29.74 in SE 8.0 mph 14.0 mph 57 % 0.00 in
20:32 81.1 °F 64.4 °F 29.74 in SSE 7.0 mph 14.0 mph 57 % 0.00 in
20:37 80.8 °F 65.7 °F 29.74 in South 8.0 mph 14.0 mph 60 % 0.00 in
20:42 80.4 °F 65.7 °F 29.74 in SE 5.0 mph 14.0 mph 61 % 0.00 in
20:44 80.4 °F 66.2 °F 29.74 in SE 10.0 mph 14.0 mph 62 % 0.00 in
20:49 80.2 °F 66.6 °F 29.74 in SE 5.0 mph 15.0 mph 63 % 0.00 in
20:59 79.5 °F 67.1 °F 29.74 in SE 8.0 mph 16.0 mph 66 % 0.00 in
21:04 79.3 °F 67.5 °F 29.74 in ESE 7.0 mph 16.0 mph 67 % 0.00 in
21:09 79.2 °F 67.6 °F 29.74 in SSE 8.0 mph 16.0 mph 68 % 0.00 in
21:14 79.0 °F 67.5 °F 29.75 in SSE 6.0 mph 20.0 mph 68 % 0.00 in
21:19 78.6 °F 67.1 °F 29.75 in SSE 3.0 mph 20.0 mph 68 % 0.00 in
21:24 78.4 °F 67.5 °F 29.75 in SSE 7.0 mph 20.0 mph 69 % 0.00 in
21:29 78.3 °F 67.6 °F 29.75 in ESE 7.0 mph 12.0 mph 70 % 0.00 in
21:34 78.1 °F 67.5 °F 29.75 in SE 5.0 mph 13.0 mph 70 % 0.00 in
21:39 77.7 °F 67.1 °F 29.75 in SSW 7.0 mph 13.0 mph 70 % 0.00 in
21:44 77.5 °F 66.9 °F 29.75 in SSE 2.0 mph 13.0 mph 70 % 0.00 in
21:49 77.5 °F 66.9 °F 29.76 in SE 4.0 mph 12.0 mph 70 % 0.00 in
21:50 77.4 °F 66.7 °F 29.76 in SE 7.0 mph 12.0 mph 70 % 0.00 in
21:55 77.4 °F 66.7 °F 29.76 in South 7.0 mph 12.0 mph 70 % 0.00 in
22:00 77.2 °F 67.1 °F 29.76 in ESE 10.0 mph 12.0 mph 71 % 0.00 in
22:05 77.2 °F 67.1 °F 29.76 in South 6.0 mph 12.0 mph 71 % 0.00 in
22:10 77.0 °F 66.9 °F 29.77 in ESE 6.0 mph 14.0 mph 71 % 0.00 in
22:15 76.8 °F 67.1 °F 29.77 in SW 12.0 mph 14.0 mph 72 % 0.00 in
22:20 76.6 °F 66.9 °F 29.77 in SSW 8.0 mph 14.0 mph 72 % 0.00 in
22:25 76.6 °F 67.3 °F 29.78 in SSW 4.0 mph 14.0 mph 73 % 0.00 in
22:30 76.5 °F 67.6 °F 29.78 in SSW 7.0 mph 14.0 mph 74 % 0.00 in
22:35 76.5 °F 67.6 °F 29.78 in SSE 5.0 mph 14.0 mph 74 % 0.00 in
22:40 76.3 °F 67.8 °F 29.78 in SE 4.0 mph 14.0 mph 75 % 0.00 in
22:45 76.3 °F 67.8 °F 29.78 in SSW 5.0 mph 13.0 mph 75 % 0.00 in
22:55 76.1 °F 68.0 °F 29.78 in SSE 5.0 mph 12.0 mph 76 % 0.00 in
23:00 75.9 °F 68.2 °F 29.78 in SSE 3.0 mph 12.0 mph 77 % 0.00 in
23:05 75.9 °F 68.2 °F 29.78 in SSE 5.0 mph 11.0 mph 77 % 0.00 in
23:10 75.7 °F 68.4 °F 29.79 in SSE 9.0 mph 11.0 mph 78 % 0.00 in
23:15 75.7 °F 68.4 °F 29.79 in SE 6.0 mph 11.0 mph 78 % 0.00 in
23:20 75.6 °F 68.5 °F 29.79 in SSE 4.0 mph 11.0 mph 79 % 0.00 in
23:22 75.6 °F 68.5 °F 29.79 in SE 5.0 mph 11.0 mph 79 % 0.00 in
23:27 75.6 °F 68.5 °F 29.79 in SSE 5.0 mph 9.0 mph 79 % 0.00 in
23:32 75.4 °F 68.7 °F 29.79 in South 7.0 mph 9.0 mph 80 % 0.00 in
23:37 75.4 °F 68.7 °F 29.79 in SE 5.0 mph 10.0 mph 80 % 0.00 in
23:42 75.4 °F 68.7 °F 29.79 in SSE 7.0 mph 11.0 mph 80 % 0.00 in
23:47 75.4 °F 69.1 °F 29.79 in SE 5.0 mph 11.0 mph 81 % 0.00 in
23:52 75.2 °F 68.9 °F 29.79 in SSW 8.0 mph 11.0 mph 81 % 0.00 in
23:57 75.2 °F 68.9 °F 29.79 in SSE 4.0 mph 11.0 mph 81 % 0.00 in
Spring, Texas: Villages of Bridgestone
Compliments of Weather Underground - 2.75 mb

Script developed by  Jim McMurry - jmcmurry@mwt.net Adapted for the template by  Wim van der Kuil - Leuven-Template.eu

You find our weather info also at:

UK Metoffice

WeatherCloud

Weather Underground

Mid-South Weather Network

AWEKAS

Citizen Weather Observer Program (CWOP)

HAMweather, WeatherForYou, PWS Weather

Equipment we use:

Weather-station
Davis Vantage Vue

Weather-program
Meteohub

Weather-server
Debian 7.9 x86 (Guest)

Provider
DreamHost

Davis Vantage Vue

Meteohub

Debian 7.9 x86 (Guest)

DreamHost